Вернуться в каталог

CZ-4 DEB

АктивенSSO
NORAD 20853·DEBRIS·🇨🇳 China

Запущен Sep 3, 1990 с Taiyuan Satellite Launch Center

Loading…

Ближайшие Пролёты (ближайшие 24 часа)

TLE

СвежийSource: Space-Track

Эпоха: Sep 14, 2026, 12:08 UTC

1 20853U 90081R   26257.50624105  .00005920  00000-0  10097-2 0  9996
2 20853  98.2425 267.8715 0014576   0.9537 151.6942 14.69291655871511

Отслеживайте CZ-4 DEB в реальном времени с AllMySat

Download on the App Store